Farmville, VA

2:41 AM EST on November 17, 2019 (GMT -0500)
Farmville Regional

Weather History for KFVX - October, 2019

Change the Weather History Date:

Tuesday, October 22, 2019

  Actual Average Record
Temperature  
Mean Temperature 58 °F -  
Max Temperature 64 °F 70 °F 86 °F (1947)
Min Temperature 52 °F 40 °F 20 °F (1930)
Degree Days  
Heating Degree Days 7    
Growing Degree Days 8 (Base 50)    
Moisture  
Dew Point 58 °F    
Average Humidity 98    
Maximum Humidity 100    
Minimum Humidity 91    
Precipitation  
Precipitation 0.57 in - - ()
Sea Level Pressure  
Sea Level Pressure 29.90 in    
Wind  
Wind Speed 3 mph ()    
Max Wind Speed 7 mph    
Max Gust Speed -    
Visibility 4.7 miles    
Events Fog , Rain    
Averages and records for this station are not official NWS values.
T = Trace of Precipitation, MM = Missing Value Source: Averaged Metar Reports

Daily Weather History Graph

Daily Weather History Graph

Search for Another Location

Airport or City:

Astronomy

Oct. 22, 2019 Rise Set
Actual Time 7:28 AM EDT 6:27 PM EDT
Civil Twilight 7:01 AM EDT 6:54 PM EDT
Nautical Twilight 6:31 AM EDT 7:24 PM EDT
Astronomical Twilight 6:00 AM EDT 7:54 PM EDT
Moon 12:46 AM EDT (10/22) 3:25 PM EDT (10/22)
Length of Visible Light 11h 52m
Length of Day
10h 59m
Last Quarter, 37% of the Moon is Illuminated
Oct 22
Last Quarter
Oct 27
New
Nov 4
First Quarter
Nov 12
Full
Nov 19
Last Quarter

Hourly Weather History & Observations

Time (EDT) Temp. Dew Point Humidity Pressure Visibility Wind Dir Wind Speed Gust Speed Precip Events Conditions
12:15 AM 55.9 °F 54.7 °F 96% 30.06 in 10.0 mi South 3.5 mph - N/A   Overcast
12:35 AM 56.3 °F 54.9 °F 95% 30.06 in 10.0 mi South 4.6 mph - N/A   Overcast
12:55 AM 56.3 °F 55.0 °F 96% 30.06 in 7.0 mi South 4.6 mph - N/A   Overcast
1:35 AM 56.5 °F 55.6 °F 97% 30.05 in 5.0 mi SSE 4.6 mph - N/A   Overcast
1:55 AM 56.5 °F 55.8 °F 97% 30.05 in 5.0 mi South 3.5 mph - N/A   Overcast
2:15 AM 56.5 °F 55.9 °F 98% 30.04 in 3.0 mi Calm Calm - N/A   Overcast
2:35 AM 56.5 °F 56.3 °F 99% 30.03 in 3.0 mi SE 3.5 mph - N/A   Overcast
2:55 AM 56.5 °F 56.3 °F 99% 30.03 in 2.5 mi SSE 3.5 mph - N/A   Overcast
3:15 AM 56.5 °F 56.3 °F 99% 30.01 in 1.5 mi SSE 5.8 mph - N/A   Overcast
3:35 AM 56.5 °F 56.3 °F 99% 30.01 in 1.8 mi South 4.6 mph - N/A   Overcast
3:55 AM 56.7 °F 56.5 °F 99% 29.99 in 2.0 mi SSE 4.6 mph - N/A   Overcast
4:15 AM 56.7 °F 56.5 °F 99% 29.99 in 2.0 mi SSE 5.8 mph - N/A   Overcast
4:35 AM 56.8 °F 56.7 °F 99% 29.99 in 2.0 mi South 4.6 mph - N/A   Overcast
4:55 AM 57.2 °F 56.8 °F 99% 29.99 in 2.5 mi SSE 4.6 mph - N/A   Overcast
5:15 AM 57.2 °F 56.8 °F 99% 29.98 in 2.5 mi SE 4.6 mph - N/A   Overcast
5:35 AM 57.2 °F 57.0 °F 99% 29.97 in 2.0 mi SSE 5.8 mph - N/A   Overcast
5:55 AM 57.2 °F 57.2 °F 100% 29.98 in 2.0 mi SSE 4.6 mph - N/A   Overcast
6:15 AM 57.4 °F 57.2 °F 99% 29.98 in 2.0 mi SSE 3.5 mph - N/A   Overcast
6:35 AM 57.6 °F 57.4 °F 99% 29.98 in 2.0 mi South 4.6 mph - N/A   Overcast
6:55 AM 57.7 °F 57.6 °F 99% 29.97 in 3.0 mi SSE 3.5 mph - N/A   Overcast
7:15 AM 58.1 °F 57.7 °F 99% 29.98 in 4.0 mi Calm Calm - N/A   Overcast
7:35 AM 58.1 °F 57.7 °F 99% 29.97 in 3.0 mi SE 3.5 mph - N/A   Overcast
7:55 AM 58.1 °F 58.1 °F 100% 29.96 in 2.5 mi SSE 4.6 mph - N/A   Overcast
8:15 AM 58.3 °F 58.1 °F 99% 29.94 in 1.5 mi SE 5.8 mph - N/A   Overcast
8:35 AM 58.5 °F 58.3 °F 99% 29.95 in 1.2 mi SSE 5.8 mph - N/A   Overcast
8:55 AM 58.6 °F 58.5 °F 99% 29.95 in 1.2 mi SSE 4.6 mph - N/A   Overcast
9:15 AM 59.0 °F 58.6 °F 99% 29.95 in 2.5 mi South 3.5 mph - N/A   Overcast
9:35 AM 59.0 °F 58.8 °F 99% 29.94 in 2.5 mi SSE 4.6 mph - N/A   Overcast
9:55 AM 59.5 °F 59.0 °F 98% 29.93 in 4.0 mi SE 4.6 mph - N/A   Overcast
10:15 AM 60.4 °F 59.4 °F 96% 29.93 in 7.0 mi SSE 3.5 mph - N/A   Overcast
10:35 AM 61.3 °F 59.7 °F 94% 29.91 in 10.0 mi SE 3.5 mph - N/A   Overcast
10:55 AM 62.1 °F 59.9 °F 93% 29.90 in 10.0 mi SSE 6.9 mph - N/A   Overcast
11:15 AM 61.9 °F 59.7 °F 93% 29.90 in 10.0 mi SE 3.5 mph - N/A   Overcast
11:35 AM 62.4 °F 59.9 °F 91% 29.88 in 10.0 mi SE 4.6 mph - N/A Rain Light Rain
11:55 AM 62.1 °F 60.3 °F 94% 29.88 in 4.0 mi SE 5.8 mph - 0.02 in Rain Heavy Rain
12:15 PM 61.7 °F 60.3 °F 95% 29.87 in 4.0 mi SE 4.6 mph - 0.05 in Rain Rain
12:35 PM 61.7 °F 60.6 °F 96% 29.85 in 5.0 mi SE 4.6 mph - 0.09 in Rain Heavy Rain
12:55 PM 61.7 °F 60.8 °F 97% 29.82 in 4.0 mi SE 5.8 mph - 0.18 in Rain Light Rain
1:15 PM 61.9 °F 61.3 °F 98% 29.81 in 5.0 mi SSE 4.6 mph - 0.01 in Rain Light Rain
1:35 PM 62.6 °F 61.9 °F 97% 29.81 in 5.0 mi Calm Calm - 0.03 in Rain Rain
1:55 PM 62.6 °F 62.1 °F 98% 29.79 in 3.0 mi Calm Calm - 0.15 in Rain Heavy Rain
2:15 PM 62.8 °F 62.6 °F 99% 29.79 in 3.0 mi Calm Calm - 0.03 in Rain Rain
2:35 PM 63.5 °F 63.3 °F 99% 29.77 in 7.0 mi South 3.5 mph - 0.03 in   Overcast
2:55 PM 64.4 °F 63.7 °F 98% 29.77 in 10.0 mi South 3.5 mph - 0.03 in   Overcast
3:15 PM 64.6 °F 64.0 °F 98% 29.76 in 7.0 mi South 5.8 mph - N/A Rain Light Rain
3:35 PM 64.9 °F 64.4 °F 98% 29.76 in 5.0 mi South 3.5 mph - 0.01 in Rain Light Rain
3:55 PM 63.0 °F 61.9 °F 96% 29.79 in 2.0 mi NNW 5.8 mph - 0.17 in Rain Heavy Rain
4:15 PM 62.2 °F 61.3 °F 97% 29.80 in 7.0 mi Calm Calm - 0.02 in Rain Light Rain
4:35 PM 63.5 °F 62.4 °F 96% 29.77 in 10.0 mi NNE 6.9 mph - 0.02 in   Mostly Cloudy
4:55 PM 64.2 °F 62.1 °F 93% 29.78 in 10.0 mi NE 3.5 mph - 0.02 in   Mostly Cloudy
5:15 PM 63.0 °F 61.3 °F 94% 29.79 in 10.0 mi Calm Calm - N/A   Mostly Cloudy
5:35 PM 62.6 °F 60.8 °F 94% 29.79 in 10.0 mi Calm Calm - N/A   Mostly Cloudy
6:15 PM 61.2 °F 60.6 °F 98% 29.81 in 10.0 mi Calm Calm - N/A   Scattered Clouds
6:35 PM 60.3 °F 60.1 °F 99% 29.81 in 10.0 mi Calm Calm - N/A   Scattered Clouds
6:55 PM 59.7 °F 59.5 °F 99% 29.82 in 10.0 mi Calm Calm - N/A   Clear
7:15 PM 59.5 °F 59.4 °F 99% 29.84 in 5.0 mi Calm Calm - N/A   Clear
7:35 PM 59.0 °F 59.0 °F 100% 29.85 in 10.0 mi Calm Calm - N/A   Clear
7:55 PM 58.5 °F 58.3 °F 99% 29.86 in 10.0 mi Calm Calm - N/A   Clear
8:15 PM 58.3 °F 58.3 °F 100% 29.86 in 10.0 mi Calm Calm - N/A   Clear
8:35 PM 55.9 °F 55.9 °F 100% 29.86 in 1.0 mi Calm Calm - N/A   Mostly Cloudy
8:55 PM 55.4 °F 55.4 °F 100% 29.87 in 0.8 mi Calm Calm - N/A   Mostly Cloudy
9:15 PM 55.6 °F 55.6 °F 100% 29.87 in 1.0 mi Calm Calm - N/A   Mostly Cloudy
9:35 PM 54.7 °F 54.7 °F 100% 29.88 in 1.2 mi Calm Calm - N/A   Mostly Cloudy
9:55 PM 54.0 °F 54.0 °F 100% 29.88 in 0.2 mi Calm Calm - N/A Fog Fog
10:15 PM 52.2 °F 52.2 °F 100% 29.88 in 0.5 mi Calm Calm - N/A Fog Fog
10:35 PM 53.2 °F 53.2 °F 100% 29.88 in 0.5 mi Calm Calm - N/A Fog Fog
11:15 PM 54.3 °F 54.3 °F 100% 29.89 in 0.2 mi Calm Calm - N/A Fog Fog
11:35 PM 52.9 °F 52.9 °F 100% 29.89 in 0.5 mi Calm Calm - N/A Fog Fog
11:55 PM 53.6 °F 53.6 °F 100% 29.89 in 0.8 mi Calm Calm - N/A   Overcast